Haines, AK

5:01 AM AKST on February 09, 2016 (GMT -0900)
Haines

Weather History for PAHN - January, 2012

Change the Weather History Date:

Sunday, January 22, 2012

  Actual Average Record
Temperature  
Mean Temperature 14 °F -  
Max Temperature 19 °F 25 °F 46 °F (2015)
Min Temperature 8 °F 18 °F -5 °F (1989)
Degree Days  
Heating Degree Days 52    
Moisture  
Dew Point 10 °F    
Average Humidity 87    
Maximum Humidity 93    
Minimum Humidity 79    
Precipitation  
Precipitation 0.07 in - - ()
Sea Level Pressure  
Sea Level Pressure 29.10 in    
Wind  
Wind Speed 15 mph (WNW)    
Max Wind Speed 20 mph    
Max Gust Speed 22 mph    
Visibility 3 miles    
Events Fog , Snow    
Averages and records for this station are not official NWS values.
T = Trace of Precipitation, MM = Missing Value Source: NWS Daily Summary

Daily Weather History Graph

Daily Weather History Graph

Search for Another Location

Airport or City:

Trip Planner

Search our weather history database for the weather conditions in past years. The results will help you decide how hot, cold, wet, or windy it might be!

Date:

Astronomy

Jan. 22, 2012 Rise Set
Actual Time 8:32 AM AKST 3:55 PM AKST
Civil Twilight 7:44 AM AKST 4:43 PM AKST
Nautical Twilight 6:52 AM AKST 5:35 PM AKST
Astronomical Twilight 6:04 AM AKST 6:23 PM AKST
Moon 7:51 AM AKST (1/22) 3:52 PM AKST (1/22)
Length of Visible Light 8h 59m
Length of Day
7h 22m
Waning Crescent, 0% of the Moon is Illuminated
Jan 22
Waning Crescent
Jan 22
New
Jan 30
First Quarter
Feb 7
Full
Feb 14
Last Quarter

Hourly Weather History & Observations

Time (AKST) Temp. Windchill Dew Point Humidity Pressure Visibility Wind Dir Wind Speed Gust Speed Precip Events Conditions
12:03 AM 8.6 °F -7.0 °F 5.0 °F 85% 28.98 in 0.2 mi WNW 12.7 mph - 0.00 in Fog , Snow Heavy Snow
12:08 AM 8.6 °F -6.3 °F 5.0 °F 85% 28.98 in 0.5 mi WNW 11.5 mph - 0.00 in Fog , Snow Snow
12:26 AM 8.6 °F -7.0 °F 5.0 °F 85% 29.00 in 0.2 mi WNW 12.7 mph - 0.01 in Fog , Snow Heavy Snow
12:37 AM 8.6 °F -7.7 °F 5.0 °F 85% 29.00 in 0.5 mi WNW 13.8 mph - 0.02 in Fog , Snow Snow
12:54 AM 8.1 °F -9.0 °F 5.0 °F 87% 29.02 in 0.5 mi WNW 15.0 mph - 0.02 in Fog , Snow Snow
1:19 AM 8.6 °F -7.7 °F 3.2 °F 79% 29.02 in 1.0 mi WNW 13.8 mph - 0.01 in Snow Light Snow
1:54 AM 8.1 °F -8.4 °F 5.0 °F 87% 29.04 in 1.0 mi WNW 13.8 mph - 0.01 in Snow Light Snow
2:10 AM 8.6 °F -7.0 °F 5.0 °F 85% 29.04 in 0.8 mi WNW 12.7 mph - 0.00 in Snow Light Snow
2:35 AM 8.6 °F -8.3 °F 5.0 °F 85% 29.05 in 1.2 mi WNW 15.0 mph - 0.00 in Snow Light Snow
2:54 AM 9.0 °F -7.3 °F 5.0 °F 84% 29.06 in 1.2 mi WNW 13.8 mph - 0.00 in Snow Light Snow
3:54 AM 9.0 °F -7.9 °F 5.0 °F 84% 29.08 in 0.5 mi WNW 15.0 mph - 0.00 in Fog , Snow Snow
4:17 AM 8.6 °F -8.3 °F 6.8 °F 92% 29.07 in 1.0 mi WNW 15.0 mph - 0.00 in Snow Light Snow
4:54 AM 9.0 °F -8.5 °F 5.0 °F 84% 29.09 in 1.0 mi WNW 16.1 mph - 0.01 in Snow Light Snow
5:01 AM 8.6 °F -8.3 °F 6.8 °F 92% 29.09 in 0.5 mi WNW 15.0 mph - 0.00 in Fog , Snow Snow
5:23 AM 8.6 °F -10.5 °F 5.0 °F 85% 29.10 in 0.5 mi WNW 19.6 mph - 0.00 in Fog , Snow Snow
5:54 AM 10.0 °F -8.1 °F 7.0 °F 87% 29.11 in 0.8 mi WNW 18.4 mph - 0.00 in Snow Light Snow
6:10 AM 8.6 °F -7.0 °F 6.8 °F 92% 29.10 in 0.8 mi WNW 12.7 mph - 0.00 in Snow Light Snow
6:40 AM 8.6 °F -8.9 °F 6.8 °F 92% 29.11 in 1.0 mi WNW 16.1 mph - 0.01 in Snow Light Snow
6:54 AM 9.0 °F -10.0 °F 6.1 °F 88% 29.13 in 1.0 mi WNW 19.6 mph - 0.01 in Snow Light Snow
7:52 AM 10.4 °F -8.2 °F 6.8 °F 85% 29.12 in 2.5 mi WNW 19.6 mph - 0.00 in Snow Light Snow
7:54 AM 10.0 °F -8.6 °F 6.1 °F 84% 29.13 in 2.5 mi WNW 19.6 mph - 0.00 in Snow Light Snow
7:58 AM 10.4 °F -8.2 °F 6.8 °F 85% 29.13 in 1.8 mi WNW 19.6 mph - 0.00 in Snow Light Snow
8:12 AM 10.4 °F -7.2 °F 6.8 °F 85% 29.13 in 0.8 mi WNW 17.3 mph - 0.00 in Snow Light Snow
8:34 AM 10.4 °F -6.6 °F 6.8 °F 85% 29.14 in 1.0 mi WNW 16.1 mph - 0.00 in Snow Light Snow
8:51 AM 10.4 °F -7.2 °F 6.8 °F 85% 29.13 in 0.5 mi WNW 17.3 mph - 0.00 in Fog , Snow Snow
8:52 AM 10.0 °F -7.6 °F 7.0 °F 87% 29.15 in 0.5 mi WNW 17.3 mph - 0.00 in Fog , Snow Snow
9:54 AM 10.9 °F -7.0 °F 8.1 °F 88% 29.14 in 0.5 mi WNW 18.4 mph - 0.00 in Fog , Snow Snow
10:54 AM 12.0 °F -4.5 °F 8.1 °F 84% 29.14 in 0.5 mi WNW 16.1 mph - 0.00 in Fog , Snow Snow
11:05 AM 10.4 °F -6.6 °F 8.6 °F 92% 29.13 in 0.5 mi WNW 16.1 mph - 0.00 in Fog , Snow Light Snow
11:54 AM 12.0 °F -4.0 °F 9.0 °F 88% 29.13 in 0.8 mi WNW 15.0 mph - 0.00 in Snow Light Snow
12:06 PM 12.2 °F -4.8 °F 8.6 °F 85% 29.12 in 1.0 mi WNW 17.3 mph - 0.00 in Snow Light Snow
12:18 PM 12.2 °F -3.7 °F 10.4 °F 92% 29.12 in 1.2 mi NW 15.0 mph 21.9 mph 0.00 in Snow Light Snow
12:30 PM 12.2 °F -4.3 °F 10.4 °F 92% 29.12 in 2.0 mi WNW 16.1 mph - 0.00 in Snow Light Snow
12:40 PM 14.0 °F -2.0 °F 10.4 °F 86% 29.12 in 4.0 mi West 16.1 mph - 0.00 in Snow Light Snow
12:54 PM 14.0 °F 0.5 °F 10.0 °F 84% 29.13 in 2.5 mi WNW 11.5 mph - 0.00 in Snow Light Snow
1:01 PM 14.0 °F 0.5 °F 10.4 °F 86% 29.12 in 1.0 mi WNW 11.5 mph - 0.00 in Snow Light Snow
1:08 PM 14.0 °F 0.5 °F 10.4 °F 86% 29.12 in 0.8 mi WNW 11.5 mph - 0.00 in Snow Light Snow
1:23 PM 14.0 °F -1.4 °F 10.4 °F 86% 29.12 in 0.8 mi WNW 15.0 mph 18.4 mph 0.00 in Snow Light Snow
1:34 PM 15.8 °F 1.4 °F 12.2 °F 86% 29.11 in 1.0 mi SW 13.8 mph 21.9 mph 0.00 in Snow Light Snow
1:39 PM 15.8 °F 5.1 °F 12.2 °F 86% 29.11 in 0.8 mi North 8.1 mph 21.9 mph 0.00 in Snow Light Snow
1:54 PM 15.1 °F 1.8 °F 10.9 °F 84% 29.12 in 0.8 mi WNW 11.5 mph 16.1 mph 0.00 in Snow Light Snow
1:57 PM 15.8 °F 0.3 °F 10.4 °F 79% 29.11 in 1.0 mi WNW 16.1 mph - 0.00 in Snow Light Snow
2:05 PM 15.8 °F 2.1 °F 12.2 °F 86% 29.11 in 2.5 mi WNW 12.7 mph 17.3 mph 0.00 in Snow Light Snow
2:13 PM 14.0 °F -1.4 °F 10.4 °F 86% 29.11 in 7.0 mi NW 15.0 mph 18.4 mph 0.00 in Snow Light Snow
2:29 PM 14.0 °F 3.9 °F 10.4 °F 86% 29.11 in 10.0 mi WNW 6.9 mph - 0.00 in   Mostly Cloudy
2:54 PM 14.0 °F -1.4 °F 10.0 °F 84% 29.12 in 10.0 mi WNW 15.0 mph - 0.00 in   Mostly Cloudy
3:54 PM 14.0 °F -0.8 °F 10.0 °F 84% 29.11 in 10.0 mi WNW 13.8 mph - N/A   Overcast
4:39 PM 12.2 °F -3.7 °F 10.4 °F 92% 29.11 in 2.5 mi WNW 15.0 mph - 0.00 in Snow Light Snow
4:47 PM 12.2 °F -3.7 °F 10.4 °F 92% 29.11 in 1.0 mi WNW 15.0 mph - 0.00 in Snow Light Snow
4:54 PM 14.0 °F -2.0 °F 10.0 °F 84% 29.12 in 1.0 mi WNW 16.1 mph - 0.00 in Snow Light Snow
5:08 PM 14.0 °F -0.2 °F 10.4 °F 86% 29.11 in 1.2 mi WNW 12.7 mph - 0.01 in Snow Light Snow
5:14 PM 12.2 °F -1.8 °F 10.4 °F 92% 29.11 in 2.0 mi WNW 11.5 mph - 0.01 in Snow Light Snow
5:24 PM 14.0 °F -0.8 °F 10.4 °F 86% 29.10 in 5.0 mi WNW 13.8 mph - 0.01 in Snow Light Snow
5:40 PM 14.0 °F -2.5 °F 10.4 °F 86% 29.10 in 9.0 mi WNW 17.3 mph - 0.01 in   Overcast
5:54 PM 16.0 °F 1.1 °F 12.0 °F 84% 29.11 in 10.0 mi WNW 15.0 mph - 0.01 in   Overcast
6:04 PM 15.8 °F 1.4 °F 12.2 °F 86% 29.10 in 10.0 mi WNW 13.8 mph - N/A   Overcast
6:46 PM 15.8 °F 1.4 °F 12.2 °F 86% 29.11 in 6.0 mi WNW 13.8 mph - 0.00 in Snow Light Snow
6:51 PM 17.6 °F 3.2 °F 12.2 °F 79% 29.11 in 1.8 mi WNW 15.0 mph - 0.00 in Snow Light Snow
6:54 PM 17.1 °F 2.5 °F 12.9 °F 84% 29.11 in 1.0 mi WNW 15.0 mph - 0.00 in Snow Light Snow
7:01 PM 17.6 °F 2.2 °F 15.8 °F 93% 29.10 in 0.8 mi WNW 17.3 mph - 0.00 in Snow Light Snow
7:06 PM 17.6 °F 2.2 °F 15.8 °F 93% 29.11 in 1.0 mi WNW 17.3 mph - 0.00 in Snow Light Snow
7:18 PM 17.6 °F 3.2 °F 14.0 °F 86% 29.11 in 3.0 mi WNW 15.0 mph - 0.00 in Snow Light Snow
7:23 PM 19.4 °F 6.0 °F 15.8 °F 86% 29.11 in 1.5 mi WNW 13.8 mph - 0.00 in Snow Light Snow
7:29 PM 19.4 °F 6.0 °F 15.8 °F 86% 29.11 in 0.8 mi WNW 13.8 mph - 0.00 in Snow Light Snow
7:37 PM 17.6 °F 2.7 °F 14.0 °F 86% 29.11 in 1.0 mi WNW 16.1 mph - 0.01 in Snow Light Snow
7:47 PM 19.4 °F 6.0 °F 17.6 °F 93% 29.11 in 2.0 mi WNW 13.8 mph - 0.01 in Snow Light Snow
7:52 PM 19.4 °F 6.0 °F 17.6 °F 93% 29.11 in 3.0 mi West 13.8 mph - 0.01 in Snow Light Snow
7:54 PM 18.0 °F 4.2 °F 15.1 °F 88% 29.12 in 3.0 mi West 13.8 mph - 0.01 in Snow Light Snow
8:08 PM 17.6 °F 3.2 °F 15.8 °F 93% 29.11 in 9.0 mi WNW 15.0 mph - 0.00 in Snow Light Snow
8:54 PM 15.1 °F -0.1 °F 12.0 °F 88% 29.12 in 10.0 mi West 15.0 mph - 0.00 in   Overcast
9:06 PM 14.0 °F -1.4 °F 10.4 °F 86% 29.11 in 10.0 mi WNW 15.0 mph - N/A   Overcast
9:54 PM 14.0 °F -1.4 °F 10.9 °F 88% 29.12 in 10.0 mi WNW 15.0 mph - N/A   Mostly Cloudy
10:54 PM 14.0 °F -1.4 °F 10.9 °F 88% 29.12 in 10.0 mi WNW 15.0 mph - N/A   Clear
11:54 PM 18.0 °F 2.6 °F 15.1 °F 88% 29.13 in 10.0 mi WNW 17.3 mph - N/A   Mostly Cloudy